CEB991 RPLL-RPMR

Flight info

Callsign CEB991
Flight time 1h 27m
Altitude 35000
Route VERDE2V VERDE A461 TAPAP Z152 JULOR W3 IOO B472 COT W19 MELBY MELBY3P
Aircraft A21N/M-SDE3FGHIRWY/LB1

Departure

Time 2026-05-04 13:25
Airport Ninoy Aquino International Airport (RPLL)

Arrival

Time 2026-05-04 14:52
Airport General Santos International Airport (RPMR)
Time Latitude Longitude Altitude Speed Heading
2026-05-04 13:06 14.52502 121.00657 81 ft 0 kts 45°
2026-05-04 13:14 14.52497 121.00652 81 ft 2 kts 45°
2026-05-04 13:14 14.52486 121.00641 81 ft 2 kts 45°
2026-05-04 13:14 14.52476 121.00629 81 ft 2 kts 45°
2026-05-04 13:15 14.52465 121.00619 81 ft 2 kts 45°
2026-05-04 13:15 14.52455 121.00608 81 ft 1 kts 45°
2026-05-04 13:15 14.52447 121.00600 81 ft 2 kts 34°
2026-05-04 13:15 14.52433 121.00595 81 ft 2 kts
2026-05-04 13:16 14.52418 121.00597 81 ft 2 kts 337°
2026-05-04 13:16 14.52408 121.00603 81 ft 0 kts 317°
2026-05-04 13:16 14.52403 121.00609 81 ft 0 kts 314°
2026-05-04 13:19 14.52404 121.00608 81 ft 0 kts 314°
2026-05-04 13:20 14.52413 121.00598 81 ft 3 kts 314°
2026-05-04 13:20 14.52441 121.00570 81 ft 7 kts 316°
2026-05-04 13:20 14.52482 121.00530 81 ft 9 kts 316°
2026-05-04 13:20 14.52483 121.00484 81 ft 7 kts 231°
2026-05-04 13:21 14.52445 121.00443 81 ft 8 kts 225°
2026-05-04 13:21 14.52404 121.00400 81 ft 8 kts 224°
2026-05-04 13:21 14.52367 121.00402 81 ft 6 kts 140°
2026-05-04 13:21 14.52341 121.00429 81 ft 0 kts 135°
2026-05-04 13:24 14.52330 121.00440 81 ft 17 kts 135°
2026-05-04 13:24 14.52042 121.00737 82 ft 97 kts 134°
2026-05-04 13:24 14.51401 121.01395 93 ft 157 kts 133°
2026-05-04 13:25 14.49761 121.03109 1259 ft 168 kts 131°
2026-05-04 13:25 14.48938 121.03920 1770 ft 163 kts 133°
2026-05-04 13:25 14.48113 121.04711 2162 ft 164 kts 133°
2026-05-04 13:25 14.47268 121.05518 2560 ft 165 kts 133°
2026-05-04 13:26 14.46422 121.06325 2950 ft 166 kts 133°
2026-05-04 13:26 14.45564 121.07147 3305 ft 170 kts 133°
2026-05-04 13:26 14.44662 121.08016 3529 ft 184 kts 133°
2026-05-04 13:26 14.43690 121.08962 3794 ft 198 kts 133°
2026-05-04 13:27 14.42618 121.09943 4056 ft 214 kts 143°
2026-05-04 13:27 14.41156 121.10427 4312 ft 232 kts 171°
2026-05-04 13:27 14.39462 121.10519 4516 ft 253 kts 176°
2026-05-04 13:27 14.37645 121.10547 4820 ft 270 kts 177°
2026-05-04 13:28 14.35697 121.10474 5244 ft 282 kts 182°
2026-05-04 13:28 14.33723 121.10301 5864 ft 286 kts 183°
2026-05-04 13:28 14.31728 121.10119 6386 ft 294 kts 183°
2026-05-04 13:28 14.29612 121.09937 6707 ft 310 kts 182°
2026-05-04 13:29 14.27425 121.09758 7117 ft 320 kts 182°
2026-05-04 13:29 14.25188 121.09567 7722 ft 324 kts 182°
2026-05-04 13:29 14.22930 121.09371 8310 ft 327 kts 182°
2026-05-04 13:29 14.20639 121.09172 8860 ft 330 kts 182°
2026-05-04 13:30 14.18307 121.08971 9398 ft 334 kts 182°
2026-05-04 13:30 14.15972 121.08773 9915 ft 337 kts 182°
2026-05-04 13:30 14.13614 121.08574 10461 ft 339 kts 182°
2026-05-04 13:30 14.11251 121.08374 10803 ft 348 kts 182°
2026-05-04 13:31 14.08787 121.08165 11017 ft 360 kts 182°
2026-05-04 13:31 14.06246 121.07950 11247 ft 371 kts 182°
2026-05-04 13:31 14.03653 121.07729 11642 ft 375 kts 182°
2026-05-04 13:31 14.01036 121.07505 12125 ft 376 kts 183°
2026-05-04 13:32 13.98400 121.07281 12610 ft 377 kts 183°
2026-05-04 13:32 13.95781 121.07056 13057 ft 379 kts 183°
2026-05-04 13:32 13.93115 121.06829 13504 ft 380 kts 183°
2026-05-04 13:32 13.90501 121.06606 13924 ft 381 kts 183°
2026-05-04 13:33 13.87821 121.06377 14334 ft 383 kts 183°
2026-05-04 13:33 13.85143 121.06148 14722 ft 385 kts 183°
2026-05-04 13:33 13.82456 121.05919 15103 ft 387 kts 183°
2026-05-04 13:33 13.79748 121.05690 15472 ft 390 kts 183°
2026-05-04 13:34 13.77063 121.05460 15821 ft 392 kts 182°
2026-05-04 13:34 13.74311 121.05227 16202 ft 393 kts 182°
2026-05-04 13:34 13.71569 121.04994 16586 ft 394 kts 183°
2026-05-04 13:34 13.68827 121.04761 16942 ft 396 kts 182°
2026-05-04 13:35 13.66063 121.04526 17299 ft 397 kts 182°
2026-05-04 13:35 13.60531 121.04058 17969 ft 400 kts 182°
2026-05-04 13:35 13.57742 121.03822 18291 ft 401 kts 183°
2026-05-04 13:36 13.54926 121.03583 18633 ft 403 kts 183°
2026-05-04 13:36 13.52138 121.03347 18940 ft 404 kts 182°
2026-05-04 13:36 13.49310 121.03217 19242 ft 405 kts 179°
2026-05-04 13:36 13.46464 121.03222 19536 ft 407 kts 178°
2026-05-04 13:37 13.43599 121.03252 19838 ft 408 kts 178°
2026-05-04 13:37 13.40767 121.03283 20133 ft 410 kts 178°
2026-05-04 13:37 13.37894 121.03314 20439 ft 411 kts 178°
2026-05-04 13:37 13.34999 121.03344 20737 ft 412 kts 178°
2026-05-04 13:38 13.32119 121.03373 21037 ft 413 kts 178°
2026-05-04 13:38 13.29216 121.03403 21338 ft 414 kts 177°
2026-05-04 13:38 13.26343 121.03636 21617 ft 414 kts 170°
2026-05-04 13:38 13.23550 121.04256 21875 ft 414 kts 162°
2026-05-04 13:39 13.20805 121.05254 22129 ft 415 kts 156°
2026-05-04 13:39 13.18137 121.06381 22388 ft 416 kts 156°
2026-05-04 13:39 13.15450 121.07542 22631 ft 418 kts 156°
2026-05-04 13:39 13.12735 121.08718 22860 ft 420 kts 156°
2026-05-04 13:40 13.10035 121.09883 23100 ft 422 kts 156°
2026-05-04 13:40 13.07309 121.11055 23350 ft 423 kts 156°
2026-05-04 13:40 13.04599 121.12219 23572 ft 425 kts 156°
2026-05-04 13:40 13.01840 121.13403 23778 ft 427 kts 156°
2026-05-04 13:41 12.99093 121.14579 23987 ft 429 kts 156°
2026-05-04 13:41 12.96316 121.15768 24203 ft 431 kts 156°
2026-05-04 13:41 12.93533 121.16958 24441 ft 432 kts 156°
2026-05-04 13:42 12.87962 121.19339 24923 ft 433 kts 156°
2026-05-04 13:42 12.85122 121.20554 25134 ft 435 kts 156°
2026-05-04 13:42 12.82335 121.21744 25325 ft 437 kts 156°
2026-05-04 13:42 12.79519 121.22946 25530 ft 438 kts 156°
2026-05-04 13:43 12.76667 121.24164 25734 ft 439 kts 156°
2026-05-04 13:43 12.73857 121.25363 25936 ft 440 kts 156°
2026-05-04 13:43 12.71582 121.26335 26086 ft 442 kts 156°
2026-05-04 13:43 12.68755 121.27542 26242 ft 444 kts 156°
2026-05-04 13:44 12.65880 121.28768 26410 ft 446 kts 156°
2026-05-04 13:44 12.63003 121.29994 26620 ft 446 kts 156°
2026-05-04 13:44 12.60103 121.31231 26812 ft 447 kts 156°
2026-05-04 13:44 12.57246 121.32448 26993 ft 448 kts 156°
2026-05-04 13:45 12.54348 121.33684 27169 ft 449 kts 156°
2026-05-04 13:45 12.51437 121.34924 27337 ft 450 kts 156°
2026-05-04 13:45 12.48553 121.36153 27511 ft 451 kts 156°
2026-05-04 13:45 12.45643 121.37392 27683 ft 452 kts 156°
2026-05-04 13:46 12.42716 121.38639 27849 ft 453 kts 156°
2026-05-04 13:46 12.39830 121.39867 28032 ft 453 kts 156°
2026-05-04 13:46 12.36881 121.41122 28252 ft 453 kts 156°
2026-05-04 13:46 12.33954 121.42368 28488 ft 452 kts 156°
2026-05-04 13:47 12.31067 121.43596 28730 ft 452 kts 156°
2026-05-04 13:47 12.28154 121.44835 28983 ft 451 kts 156°
2026-05-04 13:47 12.25245 121.46072 29223 ft 450 kts 157°
2026-05-04 13:47 12.22348 121.47304 29425 ft 451 kts 157°
2026-05-04 13:48 12.19435 121.48542 29641 ft 451 kts 157°
2026-05-04 13:48 12.16544 121.49770 29855 ft 451 kts 157°
2026-05-04 13:48 12.13626 121.51010 30114 ft 450 kts 157°
2026-05-04 13:48 12.10739 121.52236 30368 ft 449 kts 157°
2026-05-04 13:49 12.07850 121.53463 30616 ft 448 kts 157°
2026-05-04 13:49 12.04977 121.54683 30848 ft 448 kts 157°
2026-05-04 13:49 12.02056 121.55924 31073 ft 448 kts 157°
2026-05-04 13:49 11.99170 121.57149 31299 ft 448 kts 157°
2026-05-04 13:50 11.96302 121.58366 31525 ft 447 kts 157°
2026-05-04 13:50 11.93412 121.59592 31770 ft 447 kts 157°
2026-05-04 13:50 11.90533 121.60815 32007 ft 446 kts 157°
2026-05-04 13:50 11.87674 121.62028 32229 ft 446 kts 157°
2026-05-04 13:51 11.84797 121.63248 32461 ft 446 kts 157°
2026-05-04 13:51 11.81908 121.64474 32688 ft 446 kts 158°
2026-05-04 13:51 11.79059 121.65681 32938 ft 446 kts 158°
2026-05-04 13:51 11.76169 121.66904 33195 ft 446 kts 158°
2026-05-04 13:52 11.70494 121.69554 33618 ft 447 kts 153°
2026-05-04 13:52 11.67764 121.71113 33837 ft 448 kts 149°
2026-05-04 13:52 11.65146 121.72813 34058 ft 448 kts 146°
2026-05-04 13:53 11.62599 121.74682 34273 ft 449 kts 143°
2026-05-04 13:53 11.60161 121.76694 34453 ft 450 kts 140°
2026-05-04 13:53 11.57841 121.78830 34619 ft 452 kts 137°
2026-05-04 13:54 11.53246 121.83225 34881 ft 454 kts 137°
2026-05-04 13:54 11.50918 121.85446 34885 ft 454 kts 137°
2026-05-04 13:55 11.43984 121.92024 34889 ft 454 kts 137°
2026-05-04 13:55 11.37057 121.98588 34890 ft 454 kts 137°
2026-05-04 13:56 11.32404 122.02999 34894 ft 455 kts 137°
2026-05-04 13:57 11.25452 122.09587 34915 ft 454 kts 137°
2026-05-04 13:58 11.16198 122.18353 34955 ft 454 kts 137°
2026-05-04 13:58 11.09244 122.24937 34991 ft 454 kts 137°
2026-05-04 13:59 11.04625 122.29303 34997 ft 454 kts 137°
2026-05-04 14:00 10.97646 122.35888 34978 ft 454 kts 137°
2026-05-04 14:00 10.90706 122.42438 34932 ft 453 kts 137°
2026-05-04 14:01 10.85876 122.46596 34910 ft 453 kts 143°
2026-05-04 14:02 10.77925 122.51768 34890 ft 452 kts 152°
2026-05-04 14:02 10.72228 122.54560 34891 ft 452 kts 155°
2026-05-04 14:03 10.66516 122.57258 34890 ft 452 kts 155°
2026-05-04 14:03 10.60784 122.59966 34887 ft 452 kts 155°
2026-05-04 14:04 10.52219 122.64017 34883 ft 451 kts 155°
2026-05-04 14:04 10.46545 122.66701 34887 ft 451 kts 155°
2026-05-04 14:05 10.37956 122.70761 34890 ft 451 kts 155°
2026-05-04 14:06 10.32270 122.73441 34893 ft 451 kts 155°
2026-05-04 14:06 10.26538 122.76145 34894 ft 451 kts 155°
2026-05-04 14:07 10.20842 122.78833 34901 ft 452 kts 155°
2026-05-04 14:07 10.15134 122.81522 34910 ft 452 kts 155°
2026-05-04 14:08 10.09392 122.84222 34924 ft 451 kts 155°
2026-05-04 14:08 10.03697 122.86903 34938 ft 451 kts 155°
2026-05-04 14:09 9.95150 122.90929 34963 ft 451 kts 155°
2026-05-04 14:10 9.86579 122.94965 34979 ft 451 kts 155°
2026-05-04 14:10 9.80859 122.97657 34991 ft 451 kts 155°
2026-05-04 14:11 9.75109 123.00356 35001 ft 451 kts 155°
2026-05-04 14:11 9.66550 123.04372 34984 ft 450 kts 154°
2026-05-04 14:12 9.60858 123.07046 34971 ft 450 kts 154°
2026-05-04 14:13 9.52317 123.11057 34946 ft 451 kts 155°
2026-05-04 14:13 9.46636 123.13724 34933 ft 450 kts 154°
2026-05-04 14:14 9.40936 123.16398 34927 ft 450 kts 154°
2026-05-04 14:14 9.32369 123.20416 34921 ft 450 kts 154°
2026-05-04 14:15 9.20923 123.25786 34913 ft 450 kts 154°
2026-05-04 14:16 9.12371 123.29794 34898 ft 450 kts 154°
2026-05-04 14:17 9.03778 123.33808 34879 ft 451 kts 154°
2026-05-04 14:18 8.95210 123.37814 34875 ft 451 kts 154°
2026-05-04 14:19 8.83803 123.43150 34876 ft 450 kts 154°
2026-05-04 14:19 8.78074 123.45828 34884 ft 451 kts 154°
2026-05-04 14:20 8.72344 123.48507 34887 ft 451 kts 154°
2026-05-04 14:20 8.66646 123.51168 34898 ft 451 kts 154°
2026-05-04 14:21 8.58074 123.55170 34901 ft 451 kts 154°
2026-05-04 14:21 8.52301 123.57866 34906 ft 452 kts 154°
2026-05-04 14:22 8.46575 123.60538 34913 ft 452 kts 154°
2026-05-04 14:22 8.40842 123.63213 34927 ft 452 kts 154°
2026-05-04 14:23 8.32252 123.67220 34947 ft 453 kts 154°
2026-05-04 14:24 8.26496 123.69901 34961 ft 453 kts 154°
2026-05-04 14:24 8.20719 123.72594 34968 ft 453 kts 154°
2026-05-04 14:25 8.14971 123.75272 34962 ft 453 kts 154°
2026-05-04 14:25 8.06363 123.79280 34954 ft 454 kts 154°
2026-05-04 14:26 8.00610 123.81958 34951 ft 454 kts 154°
2026-05-04 14:26 7.95815 123.84190 34954 ft 454 kts 154°
2026-05-04 14:27 7.89073 123.87325 34966 ft 454 kts 154°
2026-05-04 14:27 7.86195 123.88664 34967 ft 454 kts 154°
2026-05-04 14:29 7.41380 124.09489 34934 ft 454 kts 154°
2026-05-04 14:30 7.35626 124.12161 34924 ft 455 kts 154°
2026-05-04 14:31 7.26928 124.16196 34910 ft 455 kts 154°
2026-05-04 14:31 7.21192 124.18896 34733 ft 455 kts 152°
2026-05-04 14:32 7.15699 124.22073 33646 ft 451 kts 145°
2026-05-04 14:32 7.13135 124.23866 32855 ft 452 kts 142°
2026-05-04 14:32 7.10651 124.25811 32058 ft 454 kts 140°
2026-05-04 14:32 7.08184 124.27811 31221 ft 457 kts 140°
2026-05-04 14:33 7.05722 124.29816 30388 ft 460 kts 140°
2026-05-04 14:33 7.03196 124.31870 29622 ft 461 kts 140°
2026-05-04 14:33 7.00714 124.33886 28898 ft 461 kts 140°
2026-05-04 14:33 6.98208 124.35918 28176 ft 460 kts 140°
2026-05-04 14:34 6.95730 124.37927 27485 ft 459 kts 140°
2026-05-04 14:34 6.93272 124.39917 27002 ft 450 kts 140°
2026-05-04 14:34 6.90826 124.41898 26496 ft 445 kts 140°
2026-05-04 14:34 6.88429 124.43839 25979 ft 441 kts 140°
2026-05-04 14:35 6.86056 124.45760 25470 ft 437 kts 140°
2026-05-04 14:35 6.83706 124.47662 24964 ft 434 kts 139°
2026-05-04 14:35 6.81346 124.49573 24453 ft 430 kts 139°
2026-05-04 14:35 6.79046 124.51437 23958 ft 427 kts 139°
2026-05-04 14:36 6.76718 124.53322 23455 ft 423 kts 139°
2026-05-04 14:36 6.74436 124.55169 22969 ft 420 kts 139°
2026-05-04 14:36 6.72178 124.56998 22481 ft 417 kts 139°
2026-05-04 14:36 6.69930 124.58816 22008 ft 414 kts 139°
2026-05-04 14:37 6.67670 124.60645 21536 ft 411 kts 139°
2026-05-04 14:37 6.65432 124.62421 21062 ft 409 kts 140°
2026-05-04 14:37 6.63166 124.64142 20580 ft 407 kts 141°
2026-05-04 14:37 6.60909 124.65840 20096 ft 405 kts 141°
2026-05-04 14:38 6.43958 124.78635 17046 ft 401 kts 141°
2026-05-04 14:38 6.41743 124.80329 16778 ft 391 kts 141°
2026-05-04 14:38 6.39676 124.82040 16453 ft 383 kts 135°
2026-05-04 14:38 6.37852 124.83958 16006 ft 378 kts 128°
2026-05-04 14:39 6.36265 124.86062 15511 ft 375 kts 124°
2026-05-04 14:39 6.34785 124.88201 15030 ft 373 kts 123°
2026-05-04 14:39 6.33304 124.90364 14542 ft 370 kts 123°
2026-05-04 14:40 6.30868 124.93851 13759 ft 366 kts 126°
2026-05-04 14:40 6.28723 124.96506 13109 ft 363 kts 128°
2026-05-04 14:40 6.27104 124.98434 12632 ft 361 kts 129°
2026-05-04 14:40 6.25467 125.00376 12134 ft 359 kts 129°
2026-05-04 14:41 6.23863 125.02281 11756 ft 353 kts 129°
2026-05-04 14:41 6.22312 125.04123 11573 ft 342 kts 128°
2026-05-04 14:41 6.19319 125.07683 11184 ft 320 kts 128°
2026-05-04 14:42 6.16540 125.10990 10821 ft 300 kts 128°
2026-05-04 14:42 6.15214 125.12569 10565 ft 293 kts 128°
2026-05-04 14:42 6.13904 125.14129 10069 ft 293 kts 128°
2026-05-04 14:43 6.12598 125.15684 9572 ft 291 kts 128°
2026-05-04 14:43 6.11278 125.17225 9129 ft 287 kts 133°
2026-05-04 14:43 6.09640 125.18342 8682 ft 289 kts 158°
2026-05-04 14:43 6.07660 125.18751 8259 ft 289 kts 171°
2026-05-04 14:44 6.05656 125.18971 7824 ft 289 kts 172°
2026-05-04 14:44 6.03662 125.19190 7398 ft 288 kts 172°
2026-05-04 14:44 6.01675 125.19415 7075 ft 283 kts 171°
2026-05-04 14:44 5.99724 125.19646 6785 ft 278 kts 171°
2026-05-04 14:45 5.97819 125.19875 6502 ft 274 kts 171°
2026-05-04 14:45 5.95944 125.20102 6223 ft 270 kts 170°
2026-05-04 14:45 5.94076 125.20329 5923 ft 265 kts 171°
2026-05-04 14:45 5.92267 125.20551 5591 ft 261 kts 171°
2026-05-04 14:46 5.90446 125.20596 5200 ft 260 kts 192°
2026-05-04 14:46 5.89871 125.20420 5063 ft 259 kts 204°
2026-05-04 14:46 5.87946 125.18269 4503 ft 249 kts 256°
2026-05-04 14:46 5.87682 125.16587 4251 ft 241 kts 266°
2026-05-04 14:47 5.87530 125.14953 4141 ft 230 kts 266°
2026-05-04 14:47 5.87427 125.13387 3962 ft 217 kts 275°
2026-05-04 14:47 5.88009 125.12078 3676 ft 200 kts 320°
2026-05-04 14:47 5.89178 125.11528 3509 ft 179 kts 354°
2026-05-04 14:48 5.90357 125.11423 3390 ft 163 kts 358°
2026-05-04 14:48 5.91474 125.11331 3302 ft 156 kts 357°
2026-05-04 14:48 5.92553 125.11227 3022 ft 153 kts 356°
2026-05-04 14:48 5.93599 125.11116 2779 ft 151 kts 355°
2026-05-04 14:49 5.94649 125.10998 2558 ft 151 kts 355°
2026-05-04 14:49 5.95528 125.10895 2374 ft 150 kts 355°
2026-05-04 14:49 5.96577 125.10769 2174 ft 150 kts 354°
2026-05-04 14:49 5.97616 125.10643 1970 ft 149 kts 354°
2026-05-04 14:50 5.98644 125.10517 1758 ft 149 kts 354°
2026-05-04 14:50 5.99685 125.10390 1539 ft 148 kts 354°
2026-05-04 14:50 6.00708 125.10263 1324 ft 148 kts 354°
2026-05-04 14:50 6.01743 125.10137 1107 ft 148 kts 354°
2026-05-04 14:51 6.02758 125.10008 880 ft 147 kts 353°
2026-05-04 14:51 6.03787 125.09870 685 ft 146 kts 353°
2026-05-04 14:51 6.04780 125.09745 534 ft 137 kts 354°
2026-05-04 14:51 6.05470 125.09660 534 ft 59 kts 353°
2026-05-04 14:52 6.05756 125.09624 534 ft 13 kts 353°
2026-05-04 14:52 6.05814 125.09647 533 ft 9 kts 67°
2026-05-04 14:52 6.05824 125.09715 533 ft 10 kts 84°